This demonstration page uses our WeatherBlox Daily Observations layout. Learn more.

Left ArrowRight Arrow

Hourly Observations for February 19, 2020

Temp ( °F °C ) Dew Point ( °F °C ) Humidity (%) Winds ( mph kmh ) Pressure ( in mb ) Visibility ( mi km ) Precip ( " mm )
12:29 am 00:29 Cloudy with Light Rain 57 13.9 53 11.7 87 87 SW 6 9 30.06 1018 7 11 0.02 0.51
12:59 am 00:59 Cloudy with Light Rain 57 13.9 54 12.2 90 90 W 5 7 30.07 1018 4 6 0.05 1.27
1:59 am 01:59 Cloudy with Light Rain 55 12.8 53 11.7 93 93 W 3 6 30.07 1018 4 6 0.08 2.03
2:59 am 02:59 Cloudy with Light Rain 55 12.8 53 11.7 93 93 WNW 8 13 30.07 1018 4 6 0.06 1.52
3:20 am 03:20 Cloudy with Light Rain 55 12.8 54 12.2 96 96 WNW 7 11 30.07 1018 4 6 0.01 0.25
3:59 am 03:59 Cloudy with Light Rain 54 12.2 52 11.1 93 93 NNW 12 19 30.10 1019 4 6 0.03 0.76
4:59 am 04:59 Cloudy with Mist and Fog 53 11.7 49 9.4 86 86 N 12 19 30.13 1020 6 10 0.01 0.25
5:59 am 05:59 Cloudy 52 11.1 45 7.2 77 77 N 18 30 30.18 1022 10 16 0.01 0.25
6:59 am 06:59 Cloudy with Haze 48 8.9 43 6.1 83 83 N 16 26 30.23 1024 6 10 0.00 0.00
7:59 am 07:59 Cloudy 49 9.4 40 4.4 71 71 N 9 15 30.27 1025 10 16 0.00 0.00
8:59 am 08:59 Cloudy 49 9.4 40 4.4 71 71 NNE 7 11 30.28 1025 10 16 0.00 0.00
9:59 am 09:59 Cloudy 49 9.4 40 4.4 71 71 N 10 17 30.30 1026 10 16 0.00 0.00
10:59 am 10:59 Cloudy 50 10 38 3.3 63 63 VRB 7 11 30.34 1027 10 16 0.00 0.00
11:59 am 11:59 Cloudy 50 10 35 1.7 57 57 NNE 15 24 30.36 1028 10 16 0.00 0.00
12:59 pm 12:59 Cloudy 49 9.4 36 2.2 61 61 NNE 12 19 30.34 1027 10 16 0.00 0.00
1:59 pm 13:59 Mostly Cloudy 49 9.4 36 2.2 61 61 NNE 9 15 30.35 1028 10 16 0.00 0.00
2:59 pm 14:59 Cloudy 49 9.4 33 0.6 55 55 NNE 10 17 30.35 1028 10 16 0.00 0.00
3:59 pm 15:59 Cloudy 49 9.4 32 0 52 52 NNE 7 11 30.36 1028 10 16 0.00 0.00
4:59 pm 16:59 Mostly Cloudy 48 8.9 34 1.1 58 58 ENE 5 7 30.37 1028 10 16 0.00 0.00
5:59 pm 17:59 Mostly Cloudy 46 7.8 33 0.6 61 61 Calm 30.38 1029 10 16 0.00 0.00
6:59 pm 18:59 Mostly Cloudy 40 4.4 35 1.7 83 83 NE 3 6 30.40 1030 10 16 0.00 0.00
7:59 pm 19:59 Partly Cloudy 39 3.9 35 1.7 86 86 Calm 30.42 1030 10 16 0.00 0.00
8:59 pm 20:59 Mostly Clear 38 3.3 34 1.1 86 86 Calm 30.43 1030 10 16 0.00 0.00
9:59 pm 21:59 Mostly Clear 37 2.8 34 1.1 89 89 Calm 30.42 1030 10 16 0.00 0.00
10:59 pm 22:59 Mostly Clear 36 2.2 33 0.6 89 89 Calm 30.43 1031 10 16 0.00 0.00
11:59 pm 23:59 Mostly Cloudy 36 2.2 33 0.6 89 89 Calm 30.42 1030 10 16 0.00 0.00

Powered by AerisWeather